Погода в Анапе

Погода в Анапе : погода сейчас, прогноз погоды и архив. Всё, что Вы хотите узнать о погоде в Анапе!

Поиск расширенной информации на нашем сайте:

Другие новости

Новости СМИ2

Главная страница сайта

Новости сайта

02.10.2013

Напоминаем, что на нашем новом сайте вы можете получить высокодетализированные прогнозы погоды по пунктам России, СНГ и мира (включающие важные для авиации метеовеличины, такие как направление и скорость ветра, видимость, явления погоды, количество и форма облачности, нижняя и верхняя граница облачности), а также ознакомиться с разнообразными материалами по авиационной метеорологии и подборкой полезных ссылок на эту тему.

Сайт Метеоцентр.Азия посвящён разработке технологий оптимизации авиаметеорологического обслуживания, включая проектирование и перспективное создание нескольких автоматизированных авиаметеорологических систем:
- система выпуска высокодетальных прогностических карт явлений погоды для нижнего воздушного пространства по России и ближнему зарубежью;
- система верификации прогнозов TAF (выпускаемых синоптиками официальных АМСГ РФ и ближнего зарубежья) и AUTOTAF (выпускаемых сайтом Метеоцентр.Азия) - выявление ошибок, онлайн-сопоставление с фактической погодой METAR, автоматическое внесение коррективов в прогнозы при резком отклонении фактической погоды от прогноза, подсчёт оправдываемости прогнозов по элементам и в целом;
- система обработки, анализа и отображения авиаметеорологической информации для применения провайдерами метеорологической информации.


Погода в Анапе - сегодня

Время (UTC), дата Ветер
(°,м/с) 
Видим.   Явления Облачность Т
(°С)
Тd
(°С)
f(%) Тe
(°С)
Pmin
(гПа)
dP
(гПа)
Po
(мм)
O2
(г/м3)
Тmin Tmax R s Состояние
почвы
09 26.04.17 190 (Ю) 20000 м    ясно 
+11.4 +5.1 65 +11  1028.3  -0.6  768  296           
12 26.04.17 210 (ЮЗ) 20000 м    ясно 
+12.1 +5 62 +12  1027.2  -1  767  295           
15 26.04.17 340 (С) 20000 м    ясно 
+12.2 +2.5 51 +13  1025.8  -1.4  766  295    +12.7       
18 26.04.17 050 (СВ) 10 км    ясно 
+11 +2.4 55 +11  1024.7  -1.1  766  296           
21 26.04.17 060 (СВ) 10 км    ясно 
+10.6 +2.8 58 +10  1023.7  -1  765  296           
00 27.04.17 060 (СВ) 10 км    ясно 
+11.7 +1.5 50 +11  1022.6  -1.1  764  295           
03 27.04.17 070 (В) 10 км    ясно 
+8 +1.3 63 +8  1022.5  -0.2  764  299  +7.5        сухая 
06 27.04.17 040 (СВ) 20000 м    ясно 
+18.9 +2 32 +20  1022.6  0.3  764  288           
09 27.04.17 160 (Ю) 20000 м    ясно 
+14.1 +8.6 69 +14  1022.8  0.1  764  291           
12 27.04.17 190 (Ю) 20000 м    ясно 
+15 +10.1 72 +16  1022.3  -0.5  764  290           
15 27.04.17 280 (З) 20000 м    ясно 
+14.8 +9.6 71 +16  1021.1  -1.1  763  290    +21       
18 27.04.17 050 (СВ) 10 км    ясно 
+14.6 +5.1 53 +15  1021.2  -0.1  763  291           
21 27.04.17 040 (СВ) 10 км    ясно 
+12.3 +3.9 56 +12  1020.6  -0.6  762  293           
00 28.04.17 060 (СВ) 10 км    ясно 
+9.7 +5.1 73 +10  1019.8  -0.6  762  296           
03 28.04.17 240 (ЮЗ) 10 км    ясно 
+10.9 +8.6 86 +11  1020.1  0.3  762  294  +8.1        сухая 
06 28.04.17 210 (ЮЗ) 20000 м    ясно 
+14.5 +6.9 60 +16  1020.5  0.4  762  291           
09 28.04.17 320 (СЗ) 20000 м    ясно 
+20.8 +9.8 49 +21  1019.8  -0.6  762  284           
12 28.04.17 310 (СЗ) 20000 м    ясно 
+19 +9.7 55 +21  1019.2  -0.6  761  285           
15 28.04.17 020 (С) 20000 м    ясно 
+21.1 +2.7 30 +21  1018.1  -1.1  761  284    +22.4       
18 28.04.17 040 (СВ) 10 км    ясно 
+16 +5.8 51 +16  1018.1  0.1  761  289           
21 28.04.17 060 (СВ) 10 км    ясно 
+14.7 -0.5 35 +15  1017  -1.1  760  291           
00 29.04.17 160 (Ю) 10 км    ясно 
+13.2 +3.5 52 +14  1016.7  -0.3  760  291           
03 29.04.17 060 (СВ) 10 км    ясно 
+10.6 +1.3 53 +11  1016.6  -0.2  759  294  +9.6        сухая 
06 29.04.17 060 (СВ) 20000 м    ясно 
+20.5 +1.4 28 +21  1016.7  0.3  760  285           
09 29.04.17 170 (Ю) 20000 м    ясно 
+17.1 +6.9 51 +17  1016.7  760  287           
Время (UTC), дата Ветер
(°,м/с) 
Видим.   Явления Облачность Т
(°С)
Тd
(°С)
f(%) Тe
(°С)
Pmin
(гПа)
dP
(гПа)
Po
(мм)
O2
(г/м3)
Тmin Tmax R s Состояние
почвы

Для получения пояснительной информации подведите курсор к названию столбца.

ПОГОДА в Анапе - архив

Всё, что Вы хотите узнать о погоде в Анапе - удобно и подробно!

Выберите нужную дату (начиная с 1 января 2015* года) и нажмите кнопку "Найти".
Будут отображены архивные сводки погоды по пункту Анапа, начиная с указанной даты.


Отображать данные в формате CSV (для использования в таблицах Excel)


Внимание! Наш архив погоды предназначен исключительно для личного некоммерческого использования в познавательных целях. Если Вам необходимы официальные справки о состоянии погоды (для производственных, юридических, коммерческих и т.п. целей), обращайтесь в органы Росгидромета.

*Примечание: данная дата относится к архиву по метеостанциям СССР (Россия, СНГ, Балтия).
Архив по метеостанциям Зарубежной Европы и Азии (кроме Китая) хранится 10 дней, по другим регионам земного шара (Китай, Африка, Америка, Австралия, Океания) - 1 день.

Анапа - район местоположения метеостанции


Название, широта, долгота, высота метеостанции:
Анапа (обсерватория) 44.97°ш. 37.30°д. 23 м над ур. моря [Российская Федерация]

Дополнительная информация

В oтличие oт бoльшинства пoгoдных сайтoв мы публикуем пoдрoбную метеoинфoрмацию в детальнoм прoфессиoнальнoм фoрмате.

Характеристики температуры и влажнoсти вoздуха измеряются на высoте 2 м в тени вдали oт зданий и деревьев.
Скoрoсть ветра измеряется на высoте 10 м (на урoвне рoста челoвека скoрoсть ветра ниже в 1.5-2 раза). Если метеoстанция нахoдится в гoрoде или в лесу, тo скoрoсть ветра занижена на 2-4 м/с пo сравнению с oткрытым местoм. Скoрoсть ветра над акватoриями крупных рек и oзёр, а также на вершинах хoлмoв на 2-5 м/с выше, чем в oбычных услoвиях.
Атмoсфернoе давление в разных тoчках местнoсти мoжет значительнo oтличаться oт давления на метеoстанции, в зависимoсти oт услoвий рельефа (при пoдъёме на 10 м давление пoнижается примернo на 1 мм рт.ст.).